North Myrtle Beach, SC

10:55 AM EDT on September 20, 2019 (GMT -0400)
Grand Strand

Weather History for KCRE - August, 2019

Change the Weather History Date:

Friday, August 23, 2019

  Actual Average Record
Temperature  
Mean Temperature 82 °F 79 °F  
Max Temperature 88 °F 86 °F 97 °F (1968)
Min Temperature 76 °F 71 °F 60 °F (1953)
Degree Days  
Heating Degree Days 0 0  
Month to date heating degree days 0 0  
Since 1 June heating degree days 0 0  
Since 1 July heating degree days 0 0  
Cooling Degree Days 17 14  
Month to date cooling degree days 383 327  
Year to date cooling degree days 1675 1372  
Since 1 June cooling degree days 1282 1160  
Growing Degree Days 31 (Base 50)    
Moisture  
Dew Point 75 °F    
Average Humidity 77    
Maximum Humidity 91    
Minimum Humidity 63    
Precipitation  
Precipitation 0.00 in 0.29 in 2.40 in (2007)
Month to date precipitation 8.27 5.30  
Year to date precipitation 31.28 33.24  
Sea Level Pressure  
Sea Level Pressure 30.03 in    
Wind  
Wind Speed 8 mph (SW)    
Max Wind Speed 21 mph    
Max Gust Speed 26 mph    
Visibility 10 miles    
Events      
T = Trace of Precipitation, MM = Missing Value Source: NWS Daily Summary

Daily Weather History Graph

Daily Weather History Graph

Search for Another Location

Airport or City:

Astronomy

Aug. 23, 2019 Rise Set
Actual Time 6:42 AM EDT 7:52 PM EDT
Civil Twilight 6:16 AM EDT 8:18 PM EDT
Nautical Twilight 5:45 AM EDT 8:48 PM EDT
Astronomical Twilight 5:13 AM EDT 9:20 PM EDT
Moon 12:01 AM EDT (8/23) 1:56 PM EDT (8/23)
Length of Visible Light 14h 01m
Length of Day
13h 10m
Waning Gibbous, 50% of the Moon is Illuminated
Aug 23
Waning Gibbous
Aug 30
New
Sep 5
First Quarter
Sep 14
Full
Sep 21
Last Quarter

Hourly Weather History & Observations

Time (EDT) Temp. Heat Index Dew Point Humidity Pressure Visibility Wind Dir Wind Speed Gust Speed Precip Events Conditions
12:53 AM 82.9 °F 90.2 °F 75.0 °F 77% 30.04 in 10.0 mi SSW 15.0 mph - N/A   Clear
1:53 AM 82.0 °F 88.6 °F 75.0 °F 79% 30.04 in 10.0 mi SSW 15.0 mph - N/A   Partly Cloudy
2:53 AM 82.0 °F 89.4 °F 75.9 °F 82% 30.03 in 10.0 mi SW 9.2 mph - N/A   Scattered Clouds
3:53 AM 81.0 °F 87.3 °F 75.9 °F 85% 30.02 in 10.0 mi WSW 4.6 mph - N/A   Clear
4:53 AM 80.1 °F 85.4 °F 75.9 °F 87% 30.02 in 10.0 mi SW 4.6 mph - N/A   Clear
5:53 AM 80.1 °F 85.4 °F 75.9 °F 87% 30.03 in 10.0 mi WSW 4.6 mph - N/A   Clear
6:53 AM 79.0 °F - 75.9 °F 90% 30.05 in 10.0 mi WSW 3.5 mph - N/A   Clear
7:53 AM 81.0 °F 87.3 °F 75.9 °F 85% 30.06 in 10.0 mi WSW 4.6 mph - N/A   Clear
8:53 AM 84.0 °F 92.6 °F 75.9 °F 76% 30.07 in 10.0 mi WSW 8.1 mph - N/A   Clear
9:53 AM 84.9 °F 93.3 °F 75.0 °F 72% 30.07 in 10.0 mi WSW 8.1 mph - N/A   Mostly Cloudy
10:53 AM 87.1 °F 94.5 °F 73.0 °F 63% 30.07 in 10.0 mi SW 9.2 mph - N/A   Partly Cloudy
11:53 AM 87.1 °F 97.3 °F 75.9 °F 69% 30.05 in 10.0 mi South 12.7 mph - N/A   Scattered Clouds
12:53 PM 87.1 °F 98.8 °F 77.0 °F 72% 30.04 in 10.0 mi South 13.8 mph - N/A   Scattered Clouds
1:53 PM 87.1 °F 99.8 °F 78.1 °F 74% 30.03 in 10.0 mi South 13.8 mph - N/A   Clear
2:53 PM 87.1 °F 97.3 °F 75.9 °F 69% 30.01 in 10.0 mi South 15.0 mph - N/A   Clear
3:53 PM 87.1 °F 98.8 °F 77.0 °F 72% 29.99 in 10.0 mi SSW 13.8 mph - N/A   Clear
4:53 PM 84.9 °F 93.3 °F 75.0 °F 72% 29.99 in 10.0 mi SSW 16.1 mph - N/A   Clear
5:53 PM 84.0 °F 91.9 °F 75.0 °F 74% 29.99 in 10.0 mi SSW 16.1 mph - N/A   Clear
6:53 PM 84.0 °F 91.9 °F 75.0 °F 74% 30.00 in 10.0 mi SSW 15.0 mph - N/A   Clear
7:53 PM 80.1 °F 84.2 °F 73.0 °F 79% 30.01 in 10.0 mi West 4.6 mph - N/A   Clear
8:53 PM 78.1 °F - 70.0 °F 76% 30.02 in 10.0 mi West 3.5 mph - N/A   Clear
9:53 PM 77.0 °F - 71.1 °F 82% 30.01 in 10.0 mi Calm Calm - N/A   Clear
10:53 PM 75.9 °F - 72.0 °F 87% 30.03 in 10.0 mi Calm Calm - N/A   Clear
11:53 PM 75.9 °F - 72.0 °F 87% 30.03 in 10.0 mi Calm Calm - N/A   Clear